Showing default

ORS 5 SENSORSAT, 42921

Orbit data source: Space-Track

ORS 5 SENSORSAT, 42921 is a payload satellite owned by DoD ORS (US) in LEO that was launched on Sat, 26 Aug 2017 UTC via an MINOTAUR IV launch vehicle from the Air Force Eastern Test Range (AFETR). Payload-class satellites include a variety of spacecraft equipped with specific instruments for various scientific and technological missions. These include communications satellites like Starlink; space stations such as the ISS; scientific satellites like the Hubble; Earth observation satellites from companies like Planet Labs, Umbra, and HawkEye 360; GPS; miniature CubeSats for education and research; and military/defense satellites.

Not visible in the next 10 days
Identifier
42921, 2017-050A
Orbit
LEO
Country
Flag of USUS
Related business
Manufacturer
MIT-LL
Mission
Operational Defense Early Warn
Bus & Motor
ORS-5, Unknown motor
Mass
~110 kg wet, ~110 kg dry
Launch date (UTC)
2017-08-26 (9 years ago)
Launch vehicle
MINOTAUR IV
Launch site
Air Force Eastern Test Range (AFETR)
Object type
Payload
Rocket body
Debris
Shape & HBR
Box + 2 Pan, 0.9 m
Radar Cross Section
1.080 m², Medium (>0.1 m² and < 1m²)

Expand to show TLE details & history
Last TLE update: 21 hours ago

TLE from 21 hours ago
0 ORS 5 SENSORSAT
1 42921U 17050A   26266.86239801  .00002287  00000-0  10993-3 0  9994
2 42921   0.0477 128.9369 0010329  96.6153 134.3631 15.01175172495875
Epoch: 2026-09-23T20:41Z
TLE epoch observation values (Epoch: 2026-09-23T20:41:51.188Z)
Latitude
-0.03731°
Longitude
46.82918°
Altitude
565.134 km
Speed
7.579 km/s
True Right ascension
23h 59m 59s
True Declination
0° 02' 13"
Sunlit
Object was in full shadow at epoch
Visualization orbit readout
Latitude
Unknown
Longitude
Unknown
Altitude
Unknown
Speed
Unknown
Apparent Right ascension
Unknown
Apparent Declination
Unknown
Sunlit
N/A
Visualization observer readout
Local Sidereal Time
11:14:38
Azimuth
Unknown
Elevation
Unknown
Doppler factor
Unknown
Orbital elements
Apogee altitude
576.801 km
Perigee altitude
562.448 km
Semi-major axis
6,947.762 km
Eccentricity
0.00103
Inclination
0.0477°
RAAN
128.9369°
Arg. of periapsis
96.6153°
True anomaly
134.44764°
Mean anomaly
134.3631°
Eccentric anomaly
134.40538°
Mean motion
3.74779 °/min
Orbital period
96.06 mins
BSTAR
0.00010993
Loading maneuver chart data...
Computing Atmospheric mass density...
Loading historical data...
Loading historical data...
Loading historical data...
Loading historical data...
Loading historical data...
Loading historical data...
Loading historical data...

Documentation

Showing up to 5 results
|